DLH77X LEZL-EDDF

Flight info

Callsign DLH77X
Flight time N/A
Altitude 34000
Route HIJ DCT PARKA DCT TLD N858 DGO/N0449F360 L176 CEGAM/N0393F220 L176 LUSEM/N0448F360 DCT LULUT DCT ADABI DCT BOKNO DCT DIBES DCT VIQAQ DCT TSU UN858 OQQAL DCT RANUX/N0443F350 DCT VALEK DCT LUTAX UM163 DIK T856 NIVNU T847 IMCOM IMCOM1D
Aircraft A321/M-SDE2E3FGIJ1LORWXYZHB1/LB1

Departure

Time 2026-04-27 17:33
Airport Seville Airport (LEZL)

Arrival

Time N/A
Airport Frankfurt Main Airport (EDDF)
Time Latitude Longitude Altitude Speed Heading
2026-04-27 17:00 37.42214 -5.89948 94 ft 0 kts 315°
2026-04-27 17:22 37.42210 -5.89943 94 ft 4 kts 314°
2026-04-27 17:22 37.42193 -5.89918 94 ft 4 kts 302°
2026-04-27 17:23 37.42182 -5.89888 94 ft 4 kts 278°
2026-04-27 17:23 37.42184 -5.89859 93 ft 3 kts 228°
2026-04-27 17:23 37.42187 -5.89855 96 ft 0 kts 224°
2026-04-27 17:26 37.42183 -5.89860 93 ft 4 kts 224°
2026-04-27 17:27 37.42163 -5.89884 96 ft 8 kts 224°
2026-04-27 17:27 37.42133 -5.89920 94 ft 6 kts 223°
2026-04-27 17:27 37.42082 -5.89943 96 ft 9 kts 176°
2026-04-27 17:27 37.42033 -5.89902 95 ft 9 kts 143°
2026-04-27 17:28 37.41983 -5.89903 96 ft 8 kts 236°
2026-04-27 17:28 37.41981 -5.89985 96 ft 11 kts 270°
2026-04-27 17:28 37.41979 -5.90246 95 ft 19 kts 269°
2026-04-27 17:29 37.41980 -5.90426 94 ft 22 kts 270°
2026-04-27 17:29 37.41980 -5.90631 93 ft 24 kts 270°
2026-04-27 17:29 37.41980 -5.90825 91 ft 18 kts 270°
2026-04-27 17:29 37.41966 -5.90947 92 ft 10 kts 248°
2026-04-27 17:30 37.41930 -5.91029 90 ft 12 kts 239°
2026-04-27 17:30 37.41895 -5.91104 91 ft 4 kts 239°
2026-04-27 17:30 37.41878 -5.91139 91 ft 5 kts 239°
2026-04-27 17:31 37.41854 -5.91181 91 ft 6 kts 225°
2026-04-27 17:31 37.41812 -5.91193 92 ft 6 kts 180°
2026-04-27 17:31 37.41777 -5.91173 92 ft 5 kts 118°
2026-04-27 17:31 37.41785 -5.91131 93 ft 5 kts 70°
2026-04-27 17:32 37.41788 -5.91086 92 ft 6 kts 88°
2026-04-27 17:32 37.41789 -5.90472 97 ft 93 kts 91°
2026-04-27 17:32 37.41794 -5.89409 100 ft 148 kts 90°
2026-04-27 17:33 37.41789 -5.87958 323 ft 172 kts 91°
2026-04-27 17:33 37.41792 -5.86490 965 ft 168 kts 92°
2026-04-27 17:33 37.41778 -5.84990 1426 ft 178 kts 91°
2026-04-27 17:33 37.41733 -5.83358 1597 ft 196 kts 93°
2026-04-27 17:34 37.41749 -5.81576 1864 ft 216 kts 84°
2026-04-27 17:34 37.42149 -5.79623 2092 ft 242 kts 75°
2026-04-27 17:34 37.42617 -5.77517 2529 ft 258 kts 69°
2026-04-27 17:34 37.43718 -5.75739 3078 ft 267 kts 34°
2026-04-27 17:35 37.45386 -5.74676 3768 ft 270 kts 25°
2026-04-27 17:35 37.47097 -5.73664 4471 ft 273 kts 26°
2026-04-27 17:35 37.48822 -5.72617 5131 ft 278 kts 26°
2026-04-27 17:35 37.50572 -5.71542 5804 ft 282 kts 26°
2026-04-27 17:36 37.52336 -5.70443 6481 ft 284 kts 28°
2026-04-27 17:36 37.54113 -5.69321 7132 ft 287 kts 28°
2026-04-27 17:36 37.55875 -5.68194 7779 ft 289 kts 28°
2026-04-27 17:36 37.57695 -5.67012 8465 ft 291 kts 27°
2026-04-27 17:37 37.59510 -5.65881 8976 ft 300 kts 25°
2026-04-27 17:37 37.61443 -5.64785 9488 ft 309 kts 23°
2026-04-27 17:37 37.63453 -5.63742 10017 ft 315 kts 21°
2026-04-27 17:37 37.65529 -5.62761 10544 ft 321 kts 19°
2026-04-27 17:38 37.67658 -5.61848 11106 ft 325 kts 17°
2026-04-27 17:38 37.69815 -5.60803 11367 ft 341 kts 26°
2026-04-27 17:38 37.71930 -5.59338 11706 ft 352 kts 31°
2026-04-27 17:38 37.74072 -5.57712 11987 ft 365 kts 31°
2026-04-27 17:39 37.76270 -5.56006 12284 ft 376 kts 32°
2026-04-27 17:39 37.78518 -5.54224 12627 ft 386 kts 32°
2026-04-27 17:39 37.80811 -5.52372 12978 ft 395 kts 33°
2026-04-27 17:39 37.83136 -5.50458 13365 ft 402 kts 33°
2026-04-27 17:40 37.85489 -5.48483 13765 ft 409 kts 34°
2026-04-27 17:40 37.87895 -5.46707 14507 ft 401 kts 24°
2026-04-27 17:40 37.90552 -5.45515 15138 ft 400 kts 15°
2026-04-27 17:40 37.93201 -5.44578 15653 ft 402 kts 15°
2026-04-27 17:41 37.95904 -5.43628 16154 ft 404 kts 15°
2026-04-27 17:41 37.98587 -5.42508 16635 ft 407 kts 21°
2026-04-27 17:41 38.01200 -5.41090 17078 ft 410 kts 25°
2026-04-27 17:41 38.03760 -5.39480 17547 ft 412 kts 28°
2026-04-27 17:42 38.06314 -5.37777 17997 ft 415 kts 28°
2026-04-27 17:42 38.08869 -5.36063 18418 ft 417 kts 28°
2026-04-27 17:42 38.11452 -5.34368 18817 ft 419 kts 27°
2026-04-27 17:42 38.14063 -5.32705 19199 ft 421 kts 26°
2026-04-27 17:43 38.16699 -5.31067 19587 ft 423 kts 26°
2026-04-27 17:43 38.19355 -5.29439 19968 ft 425 kts 26°
2026-04-27 17:43 38.22028 -5.27807 20344 ft 427 kts 26°
2026-04-27 17:43 38.24717 -5.26164 20721 ft 429 kts 26°
2026-04-27 17:44 38.27414 -5.24508 21086 ft 432 kts 26°
2026-04-27 17:44 38.30127 -5.22832 21473 ft 434 kts 26°
2026-04-27 17:44 38.32848 -5.21146 21825 ft 436 kts 26°
2026-04-27 17:44 38.35578 -5.19455 21926 ft 436 kts 26°
2026-04-27 17:45 38.38308 -5.17761 21928 ft 436 kts 26°
2026-04-27 17:45 38.40995 -5.16091 21928 ft 435 kts 26°
2026-04-27 17:45 38.43719 -5.14395 21928 ft 435 kts 26°
2026-04-27 17:45 38.46442 -5.12701 21928 ft 435 kts 25°
2026-04-27 17:46 38.49273 -5.11311 21930 ft 435 kts 15°
2026-04-27 17:46 38.52237 -5.10547 21928 ft 435 kts
2026-04-27 17:46 38.55255 -5.10428 22014 ft 436 kts 355°
2026-04-27 17:46 38.58284 -5.10746 22394 ft 438 kts 354°
2026-04-27 17:47 38.61327 -5.11064 22770 ft 440 kts 355°
2026-04-27 17:47 38.63353 -5.11268 23005 ft 441 kts 355°
2026-04-27 17:47 38.67463 -5.11675 23472 ft 444 kts 355°
2026-04-27 17:47 38.70556 -5.11982 23773 ft 446 kts 355°
2026-04-27 17:48 38.73656 -5.12293 24081 ft 448 kts 355°
2026-04-27 17:48 38.76765 -5.12606 24385 ft 449 kts 355°
2026-04-27 17:48 38.79886 -5.12920 24681 ft 451 kts 354°
2026-04-27 17:48 38.83029 -5.13240 24976 ft 453 kts 354°
2026-04-27 17:49 38.86136 -5.13561 25275 ft 454 kts 354°
2026-04-27 17:49 38.89292 -5.13890 25570 ft 456 kts 354°
2026-04-27 17:49 38.92463 -5.14220 25867 ft 458 kts 354°
2026-04-27 17:49 38.95649 -5.14394 26149 ft 460 kts
2026-04-27 17:50 38.98834 -5.13923 26428 ft 463 kts 11°
2026-04-27 17:50 39.04854 -5.10970 26954 ft 468 kts 31°
2026-04-27 17:50 39.07604 -5.08709 27220 ft 470 kts 32°
2026-04-27 17:51 39.10355 -5.06425 27490 ft 471 kts 32°
2026-04-27 17:51 39.13120 -5.04133 27745 ft 473 kts 32°
2026-04-27 17:51 39.15893 -5.01839 28000 ft 475 kts 32°
2026-04-27 17:51 39.18681 -4.99536 28235 ft 476 kts 32°
2026-04-27 17:52 39.21479 -4.97224 28454 ft 478 kts 32°
2026-04-27 17:52 39.24285 -4.94899 28667 ft 479 kts 32°
2026-04-27 17:52 39.27096 -4.92563 28859 ft 481 kts 32°
2026-04-27 17:52 39.29915 -4.90214 29072 ft 482 kts 32°
2026-04-27 17:53 39.32694 -4.87898 29345 ft 482 kts 32°
2026-04-27 17:53 39.35509 -4.85550 29634 ft 481 kts 32°
2026-04-27 17:53 39.38320 -4.83207 29917 ft 481 kts 32°
2026-04-27 17:53 39.41128 -4.80863 30164 ft 480 kts 32°
2026-04-27 17:54 39.43932 -4.78519 30399 ft 480 kts 32°
2026-04-27 17:54 39.46733 -4.76176 30646 ft 479 kts 32°
2026-04-27 17:54 39.49527 -4.73834 30895 ft 478 kts 32°
2026-04-27 17:54 39.52320 -4.71492 31140 ft 478 kts 32°
2026-04-27 17:55 39.55108 -4.69153 31386 ft 477 kts 32°
2026-04-27 17:55 39.57890 -4.66816 31622 ft 476 kts 32°
2026-04-27 17:55 39.60663 -4.64483 31865 ft 475 kts 32°
2026-04-27 17:55 39.63435 -4.62146 32112 ft 475 kts 32°
2026-04-27 17:56 39.66199 -4.59812 32354 ft 474 kts 32°
2026-04-27 17:56 39.68959 -4.57483 32588 ft 473 kts 32°
2026-04-27 17:56 39.71716 -4.55156 32797 ft 473 kts 32°
2026-04-27 17:56 39.74475 -4.52825 33028 ft 473 kts 32°
2026-04-27 17:57 39.77230 -4.50494 33236 ft 472 kts 32°
2026-04-27 17:57 39.79985 -4.48163 33453 ft 472 kts 32°
2026-04-27 17:57 39.82737 -4.45832 33669 ft 472 kts 32°
2026-04-27 17:57 39.85480 -4.43505 33882 ft 471 kts 32°
2026-04-27 17:58 39.88229 -4.41170 34076 ft 471 kts 32°
2026-04-27 17:58 39.90968 -4.38839 34251 ft 471 kts 32°
2026-04-27 17:58 39.93711 -4.36501 34435 ft 471 kts 32°
2026-04-27 17:58 39.96455 -4.34195 34622 ft 470 kts 29°
2026-04-27 17:59 39.99361 -4.32259 34772 ft 469 kts 24°
2026-04-27 17:59 40.02278 -4.30491 34937 ft 469 kts 24°
2026-04-27 17:59 40.05236 -4.28697 35110 ft 468 kts 24°
2026-04-27 17:59 40.08188 -4.26902 35284 ft 468 kts 24°
2026-04-27 18:00 40.11145 -4.25095 35458 ft 468 kts 24°
2026-04-27 18:00 40.14090 -4.23293 35630 ft 468 kts 24°
2026-04-27 18:00 40.17044 -4.21485 35807 ft 467 kts 24°
2026-04-27 18:00 40.19991 -4.19684 35944 ft 468 kts 24°
2026-04-27 18:01 40.25881 -4.16075 35962 ft 467 kts 24°
2026-04-27 18:01 40.31771 -4.12467 35971 ft 467 kts 24°
2026-04-27 18:02 40.37666 -4.08844 35966 ft 467 kts 24°
2026-04-27 18:02 40.43517 -4.05231 35965 ft 468 kts 23°
2026-04-27 18:03 40.49412 -4.01586 35986 ft 468 kts 24°
2026-04-27 18:03 40.55311 -3.97940 35993 ft 469 kts 23°
2026-04-27 18:04 40.61213 -3.94279 36008 ft 469 kts 24°
2026-04-27 18:04 40.67118 -3.90600 36013 ft 469 kts 24°
2026-04-27 18:05 40.73024 -3.86917 36022 ft 469 kts 24°
2026-04-27 18:05 40.78927 -3.83234 36020 ft 470 kts 24°
2026-04-27 18:06 40.84834 -3.79542 36028 ft 470 kts 24°
2026-04-27 18:06 40.90737 -3.75847 36031 ft 469 kts 23°
2026-04-27 18:07 40.96641 -3.72152 36040 ft 469 kts 23°
2026-04-27 18:07 41.02533 -3.68453 36039 ft 469 kts 24°
2026-04-27 18:08 41.08395 -3.64756 36065 ft 469 kts 23°
2026-04-27 18:08 41.14280 -3.61036 36065 ft 468 kts 23°
2026-04-27 18:09 41.20233 -3.57516 36058 ft 467 kts 20°
2026-04-27 18:09 41.26266 -3.54310 36057 ft 467 kts 19°
2026-04-27 18:10 41.32311 -3.51127 36071 ft 467 kts 19°
2026-04-27 18:10 41.38338 -3.47858 36075 ft 467 kts 20°
2026-04-27 18:11 41.44306 -3.44564 36073 ft 467 kts 20°
2026-04-27 18:11 41.50316 -3.41247 36069 ft 467 kts 20°
2026-04-27 18:12 41.56318 -3.37923 36086 ft 466 kts 20°
2026-04-27 18:12 41.62296 -3.34622 36068 ft 465 kts 20°
2026-04-27 18:13 41.68279 -3.31328 36066 ft 464 kts 20°
2026-04-27 18:13 41.74244 -3.28024 36083 ft 465 kts 20°
2026-04-27 18:14 41.80222 -3.24698 36082 ft 465 kts 20°
2026-04-27 18:14 41.86195 -3.21368 36082 ft 465 kts 20°
2026-04-27 18:15 41.92181 -3.18023 36101 ft 465 kts 20°
2026-04-27 18:15 41.98122 -3.14697 36111 ft 466 kts 20°
2026-04-27 18:16 42.04115 -3.11347 36105 ft 467 kts 20°
2026-04-27 18:16 42.10128 -3.07975 36106 ft 468 kts 20°
2026-04-27 18:17 42.16141 -3.04596 36119 ft 468 kts 20°
2026-04-27 18:17 42.22155 -3.01205 36115 ft 469 kts 20°
2026-04-27 18:18 42.27161 -2.98381 36118 ft 469 kts 20°
2026-04-27 18:18 42.33177 -2.94975 36113 ft 469 kts 20°
2026-04-27 18:19 42.39195 -2.91554 36124 ft 469 kts 20°
2026-04-27 18:19 42.45101 -2.87785 36113 ft 472 kts 31°
2026-04-27 18:20 42.50221 -2.82203 36111 ft 474 kts 40°
2026-04-27 18:20 42.55148 -2.76264 36117 ft 474 kts 40°
2026-04-27 18:21 42.60077 -2.70310 36127 ft 475 kts 40°
2026-04-27 18:21 42.65017 -2.64334 36125 ft 475 kts 40°
2026-04-27 18:22 42.69923 -2.58396 36132 ft 475 kts 40°
2026-04-27 18:22 42.74854 -2.52398 36139 ft 475 kts 40°
2026-04-27 18:23 42.79784 -2.46390 36142 ft 476 kts 40°
2026-04-27 18:23 42.84710 -2.40380 36143 ft 476 kts 40°
2026-04-27 18:24 42.89633 -2.34361 36129 ft 476 kts 40°
2026-04-27 18:24 42.94563 -2.28324 36124 ft 476 kts 40°
2026-04-27 18:25 42.99481 -2.22284 36132 ft 475 kts 40°
2026-04-27 18:25 43.02026 -2.19432 36160 ft 472 kts 28°
2026-04-27 18:25 43.04950 -2.17435 36146 ft 469 kts 22°
2026-04-27 18:26 43.10881 -2.13708 36137 ft 470 kts 22°
2026-04-27 18:26 43.16951 -2.10425 36141 ft 468 kts 14°
2026-04-27 18:27 43.23086 -2.07428 36146 ft 471 kts 25°
2026-04-27 18:27 43.25844 -2.05097 36144 ft 474 kts 36°
2026-04-27 18:27 43.28326 -2.02105 36145 ft 476 kts 41°
2026-04-27 18:28 43.33175 -1.95910 36143 ft 477 kts 41°
2026-04-27 18:28 43.38437 -1.90432 36134 ft 473 kts 27°
2026-04-27 18:29 43.44155 -1.85938 36160 ft 474 kts 29°
2026-04-27 18:29 43.49696 -1.80993 36157 ft 475 kts 32°
2026-04-27 18:30 43.55163 -1.75862 36156 ft 475 kts 32°
2026-04-27 18:30 43.60616 -1.70837 36150 ft 475 kts 31°
2026-04-27 18:31 43.66156 -1.65829 36152 ft 476 kts 31°
2026-04-27 18:31 43.71698 -1.60829 36146 ft 476 kts 31°
2026-04-27 18:32 43.74256 -1.57924 36130 ft 479 kts 49°
2026-04-27 18:32 43.76034 -1.54044 36130 ft 478 kts 65°
2026-04-27 18:32 43.78890 -1.45716 36115 ft 479 kts 64°
2026-04-27 18:33 43.82596 -1.38113 36122 ft 477 kts 44°
2026-04-27 18:33 43.87697 -1.32426 36118 ft 474 kts 31°
2026-04-27 18:34 43.93197 -1.27373 36111 ft 475 kts 31°
2026-04-27 18:34 43.98688 -1.22285 36110 ft 475 kts 31°
2026-04-27 18:35 44.04199 -1.17187 36119 ft 476 kts 31°
2026-04-27 18:35 44.09720 -1.12083 36110 ft 477 kts 31°
2026-04-27 18:36 44.15251 -1.06961 36112 ft 477 kts 31°
2026-04-27 18:36 44.20775 -1.01828 36104 ft 477 kts 31°
2026-04-27 18:37 44.26299 -0.96676 36109 ft 478 kts 31°
2026-04-27 18:37 44.31821 -0.91506 36099 ft 478 kts 31°
2026-04-27 18:38 44.37347 -0.86330 36102 ft 478 kts 31°
2026-04-27 18:38 44.43127 -0.81987 36118 ft 474 kts 20°
2026-04-27 18:39 44.49182 -0.78323 36107 ft 474 kts 20°
2026-04-27 18:39 44.55242 -0.74619 36097 ft 475 kts 20°
2026-04-27 18:40 44.61234 -0.70743 36068 ft 471 kts 32°
2026-04-27 18:40 44.63623 -0.67708 35984 ft 462 kts 52°
2026-04-27 18:40 44.65228 -0.63858 35725 ft 454 kts 68°
2026-04-27 18:41 44.66139 -0.59666 35320 ft 447 kts 82°
2026-04-27 18:41 44.66407 -0.55363 34888 ft 440 kts 95°
2026-04-27 18:41 44.66003 -0.51163 34460 ft 430 kts 110°
2026-04-27 18:41 44.64933 -0.47305 34034 ft 418 kts 124°
2026-04-27 18:42 44.63303 -0.44001 33546 ft 406 kts 138°
2026-04-27 18:42 44.61960 -0.42145 33227 ft 398 kts 146°
2026-04-27 18:42 44.58927 -0.39431 32597 ft 384 kts 162°
2026-04-27 18:42 44.56437 -0.38252 32137 ft 374 kts 173°
2026-04-27 18:43 44.53901 -0.37840 31797 ft 360 kts 187°
2026-04-27 18:43 44.51504 -0.38532 30766 ft 350 kts 211°
2026-04-27 18:43 44.49613 -0.40604 29500 ft 348 kts 235°
2026-04-27 18:43 44.48618 -0.43659 28239 ft 349 kts 261°
2026-04-27 18:44 44.48754 -0.47039 27188 ft 352 kts 287°
2026-04-27 18:44 44.49989 -0.49992 26241 ft 357 kts 312°
2026-04-27 18:44 44.52065 -0.51886 25364 ft 363 kts 339°
2026-04-27 18:44 44.54564 -0.52354 24505 ft 366 kts
2026-04-27 18:45 44.57105 -0.52098 23646 ft 364 kts
2026-04-27 18:45 44.59609 -0.51959 22742 ft 356 kts 352°
2026-04-27 18:45 44.62003 -0.52551 21929 ft 343 kts 338°
2026-04-27 18:45 44.64124 -0.53844 21144 ft 332 kts 325°
2026-04-27 18:46 44.66049 -0.55574 20348 ft 326 kts 323°
2026-04-27 18:46 44.67833 -0.57452 19594 ft 316 kts 310°
2026-04-27 18:46 44.69070 -0.59916 18881 ft 304 kts 291°
2026-04-27 18:46 44.69633 -0.62721 18140 ft 296 kts 273°
2026-04-27 18:47 44.69505 -0.65566 17358 ft 290 kts 255°
2026-04-27 18:47 44.68640 -0.68075 16592 ft 286 kts 229°
2026-04-27 18:47 44.67079 -0.69753 15857 ft 285 kts 203°
2026-04-27 18:47 44.65148 -0.70260 15148 ft 286 kts 177°
2026-04-27 18:48 44.63250 -0.69487 14464 ft 287 kts 150°
2026-04-27 18:48 44.61797 -0.67599 13785 ft 288 kts 123°
2026-04-27 18:48 44.61101 -0.65000 13062 ft 286 kts 95°
2026-04-27 18:48 44.61311 -0.62264 12362 ft 283 kts 68°
2026-04-27 18:49 44.62358 -0.59965 11513 ft 283 kts 41°
2026-04-27 18:49 44.64051 -0.58550 10567 ft 286 kts 13°
2026-04-27 18:49 44.66009 -0.58378 9765 ft 282 kts 346°
2026-04-27 18:49 44.67771 -0.59455 8952 ft 277 kts 321°
2026-04-27 18:50 44.69038 -0.61446 8104 ft 274 kts 298°
2026-04-27 18:50 44.69625 -0.63979 7253 ft 274 kts 274°
2026-04-27 18:50 44.69449 -0.66573 6534 ft 270 kts 252°
2026-04-27 18:50 44.68787 -0.69030 5781 ft 268 kts 249°
2026-04-27 18:51 44.68107 -0.71459 5018 ft 267 kts 248°
2026-04-27 18:51 44.67428 -0.73885 4258 ft 267 kts 249°
2026-04-27 18:51 44.66807 -0.76326 3580 ft 262 kts 261°
2026-04-27 18:51 44.66831 -0.78734 3425 ft 238 kts 287°
2026-04-27 18:52 44.67517 -0.80802 3249 ft 232 kts 311°
2026-04-27 18:52 44.68602 -0.82382 3069 ft 219 kts 317°
2026-04-27 18:52 44.69676 -0.83870 3023 ft 215 kts 317°
2026-04-27 18:53 44.71874 -0.85919 3012 ft 168 kts
2026-04-27 18:53 44.72952 -0.85545 2845 ft 158 kts 33°
2026-04-27 18:53 44.73743 -0.84523 2644 ft 153 kts 45°
2026-04-27 18:53 44.74482 -0.83467 2428 ft 151 kts 44°
2026-04-27 18:54 44.75217 -0.82425 2230 ft 150 kts 44°
2026-04-27 18:54 44.75939 -0.81399 2064 ft 147 kts 44°
2026-04-27 18:54 44.76647 -0.80394 1836 ft 143 kts 43°
2026-04-27 18:54 44.77338 -0.79410 1617 ft 140 kts 43°
2026-04-27 18:55 44.78020 -0.78441 1406 ft 139 kts 42°
2026-04-27 18:55 44.78704 -0.77470 1194 ft 140 kts 43°
2026-04-27 18:55 44.79387 -0.76499 994 ft 140 kts 43°
2026-04-27 18:55 44.80086 -0.75505 791 ft 143 kts 43°
2026-04-27 18:56 44.80798 -0.74483 571 ft 149 kts 42°
2026-04-27 18:56 44.81510 -0.73466 346 ft 147 kts 42°
2026-04-27 18:56 44.82226 -0.72445 185 ft 143 kts 42°
2026-04-27 18:56 44.82852 -0.71565 172 ft 106 kts 46°
2026-04-27 18:57 44.83247 -0.70998 171 ft 57 kts 45°
2026-04-27 18:57 44.83502 -0.70641 169 ft 49 kts 44°
2026-04-27 18:57 44.83700 -0.70351 168 ft 35 kts 47°
2026-04-27 18:57 44.83800 -0.70170 168 ft 17 kts 80°
2026-04-27 18:58 44.83737 -0.70048 167 ft 17 kts 154°
2026-04-27 18:58 44.83666 -0.70012 168 ft 16 kts 166°
2026-04-27 18:58 44.83564 -0.70082 168 ft 12 kts 227°
2026-04-27 18:58 44.83506 -0.70172 168 ft 13 kts 228°
2026-04-27 18:59 44.83428 -0.70289 168 ft 20 kts 223°
2026-04-27 18:59 44.83331 -0.70319 169 ft 9 kts 186°
2026-04-27 18:59 44.83284 -0.70319 169 ft 5 kts 147°
2026-04-27 18:59 44.83249 -0.70305 169 ft 0 kts 177°
2026-04-27 19:00 44.83245 -0.70305 169 ft 0 kts 177°